Location: Pescara
(42.4670°N, 14.2170°E)
Time: 03:20:41
(UTC+02:00)

ISS - Pass Details

Date: 11 May 2021
Orbit: 417 x 422 km, 51.6° (Epoch: 14 June)

Event Time Altitude Azimuth Distance (km) Brightness Sun altitude
Exits shadow 02:03:37 19° 354° (N) 1,070 -1.1 -27.9°
Drops below altitude 10° 02:05:57 10° 38° (NE) 1,509 -0.1 -27.7°
Sets 02:08:29 0° 57° (ENE) 2,375 0.8 -27.6°
